Regional Weather Roundup
Issued by NWS State College, PA

Home | Current Version | Previous Version | Text Only | Print | Product List | Glossary On
Versions: 1 2 3 4 5 6 7 8 9 10 11 12 13 14 15 16 17 18 19 20 21 22 23 24 25 26 27 28 29 30 31 32 33 34 35 36 37 38 39 40 41 42 43 44 45 46 47 48 49 50
000
ASUS41 KCTP 241510
RWRCTP

REGIONAL WEATHER ROUNDUP
NATIONAL WEATHER SERVICE STATE COLLEGE PA
1100 AM EDT FRI OCT 24 2014

Note: "fair" indicates few or no clouds below 12,000 feet with no
significant weather and/or obstructions to visibility.

* = STATION THAT DOES NOT REPORT PRECIPITATION /E.G. RAIN...SNOW...ETC/
    THUNDER OR FOG.

PAZ002>004-007>009-013>016-020>023-029>032-241600-
WESTERN PENNSYLVANIA

CITY           SKY/WX    TMP DP  RH WIND       PRES   REMARKS
ERIE           MOSUNNY   56  43  61 NW3       30.07S
MEADVILLE      PTSUNNY   46  44  93 W3        30.07F FOG
FRANKLIN*      CLOUDY    45  43  93 W5        30.09S
NEW CASTLE       N/A     47  43  86 CALM      30.11S
BEAVER COUNTY  SUNNY     50  43  76 CALM      30.09F
BUTLER*        PTSUNNY   46  41  81 SW5       30.11S
PITTSBURGH INT CLOUDY    49  42  77 W6        30.10S
PITTSBURGH     PTSUNNY   47  38  71 SW3       30.09S
INDIANA*       CLOUDY    48  41  76 NW8       30.12S
LATROBE        CLOUDY   N/A N/A N/A CALM      30.12S FOG
WASHINGTON CO* MOSUNNY   48  43  81 W7        30.11F
$$

PAZ004>006-010>012-017>019-024>028-033>037-041-042-045-046-049>053-241600-
CENTRAL PENNSYLVANIA

CITY           SKY/WX    TMP DP  RH WIND       PRES   REMARKS
BRADFORD       SUNNY     49  35  58 NW12      30.02S
DUBOIS         PTSUNNY   47  41  80 W15       30.04F
CLEARFIELD     SUNNY     53  37  54 NW8       30.03F
JOHNSTOWN      MOSUNNY   45  37  73 NW16G23   30.05S
ALTOONA        SUNNY     53  40  61 NW12      30.03F
STATE COLLEGE  SUNNY     54  37  54 W8        30.00F
WILLIAMSPORT   SUNNY     61  37  41 W14       29.93F
SELINSGROVE    SUNNY     60  40  47 NW6G18    29.95F
FT INDIANTOWN  SUNNY     61  43  51 NW14G21   29.93S
CAPITAL CITY   SUNNY     61  40  45 NW13      29.95S
HARRISBURG     SUNNY     61  40  45 NW14      29.94F
YORK           SUNNY     62  40  44 NW18G26   29.94F
$$

PAZ038>040-043-044-047-048-054-055-060>062-067>071-241600-
EASTERN PENNSYLVANIA

CITY           SKY/WX    TMP DP  RH WIND       PRES   REMARKS
SCRANTON       MOSUNNY   55  43  63 NW13G18   29.90F
MOUNT POCONO   MOSUNNY   51  41  68 NW17G29   29.86R
ALLENTOWN      SUNNY     60  43  53 NW10      29.88S
QUAKERTOWN*    SUNNY     59  45  58 N13       29.88F
READING        MOSUNNY   62  43  49 NW20G30   29.89F
LANCASTER      MOSUNNY   61  44  53 NW20G25   29.91F
COATESVILLE    SUNNY     59  45  58 NW20G29   29.90F
POTTSTOWN      SUNNY     60  45  57 NW12G20   29.89S
BLUE BELL      SUNNY     63  45  51 NW10G20   29.86F
DOYLESTOWN     MOSUNNY   58  44  60 N12G21    29.86S
WILLOW GROVE   NOT AVBL
NORTH PHILA    MOSUNNY   61  42  49 N20       29.88S
PHILADELPHIA   MOSUNNY   62  44  51 NW12      29.88F
$$



USA.gov is the U.S. government's official web portal to all federal, state and local government web resources and services.